Weather History for KVAD - February, 2013

Change the Weather History Date:

Wednesday, February 20, 2013

  Actual Average (KVLD) Record (KVLD)
Temperature  
Mean Temperature 46 °F 55 °F  
Max Temperature 59 °F 68 °F - ()
Min Temperature 32 °F 43 °F - ()
Degree Days  
Heating Degree Days 20 10  
Month to date heating degree days 237  
Since 1 July heating degree days 1306  
Moisture  
Dew Point 33 °F    
Average Humidity 72    
Maximum Humidity 100    
Minimum Humidity 23    
Precipitation  
Precipitation 0.00 in 0.19 in - ()
Month to date precipitation 2.38  
Year to date precipitation 6.95  
Sea Level Pressure  
Sea Level Pressure 30.15 in    
Wind  
Wind Speed 5 mph (North)    
Max Wind Speed 9 mph    
Max Gust Speed -    
Visibility 9 miles    
Events      
T = Trace of Precipitation, MM = Missing Value Source: NWS Daily Summary

Daily Weather History Graph

Daily Weather History Graph

Search for Another Location

Airport or City:

Trip Planner

Search our weather history database for the weather conditions in past years. The results will help you decide how hot, cold, wet, or windy it might be!

Date:

Astronomy

Feb. 20, 2013 Rise Set
Actual Time 7:08 AM EST 6:24 PM EST
Civil Twilight 6:44 AM EST 6:49 PM EST
Nautical Twilight 6:15 AM EST 7:17 PM EST
Astronomical Twilight 5:47 AM EST 7:45 PM EST
Moon 1:56 PM EST (2/20) 3:16 AM EST (2/20)
Length of Visible Light 12h 04m
Length of Day
11h 15m
Waxing Gibbous, 76% of the Moon is Illuminated
Feb 20
Waxing Gibbous
Feb 25
Full
Mar 4
Last Quarter
Mar 11
New
Mar 19
First Quarter

Hourly Weather History & Observations

Time (EST) Temp. Windchill Dew Point Humidity Pressure Visibility Wind Dir Wind Speed Gust Speed Precip Events Conditions
12:58 AM 43.0 °F 38.8 °F 42.8 °F 99% 30.13 in 10.0 mi NW 6.9 mph - N/A   Clear
1:58 AM 41.0 °F 36.4 °F 40.8 °F 99% 30.14 in 10.0 mi NNW 6.9 mph - N/A   Clear
2:50 AM 39.2 °F - 39.2 °F 100% 30.14 in 9.0 mi ENE 1.2 mph - N/A   Clear
2:58 AM 38.8 °F - 38.7 °F 99% 30.15 in 7.0 mi Calm Calm - N/A   Clear
3:00 AM 37.4 °F - 37.4 °F 100% 30.14 in 5.0 mi Calm Calm - N/A   Clear
3:02 AM 37.4 °F - 37.4 °F 100% 30.14 in 3.0 mi North 2.3 mph - N/A   Clear
3:04 AM 37.4 °F 33.8 °F 37.4 °F 100% 30.14 in 1.8 mi North 4.6 mph - N/A   Clear
3:10 AM 37.4 °F 31.4 °F 37.4 °F 100% 30.14 in 2.0 mi North 8.1 mph - N/A   Clear
3:12 AM 37.4 °F 31.4 °F 37.4 °F 100% 30.14 in 3.0 mi North 8.1 mph - N/A   Clear
3:14 AM 39.2 °F 33.6 °F 37.4 °F 93% 30.14 in 6.0 mi North 8.1 mph - N/A   Clear
3:16 AM 39.2 °F 34.2 °F 39.2 °F 100% 30.14 in 10.0 mi North 6.9 mph - N/A   Clear
3:58 AM 39.7 °F - 33.1 °F 77% 30.15 in 10.0 mi NNW 2.3 mph - N/A   Clear
4:58 AM 33.3 °F 30.2 °F 32.5 °F 97% 30.16 in 10.0 mi North 3.5 mph - N/A   Clear
5:58 AM 33.1 °F - 31.3 °F 93% 30.19 in 10.0 mi Calm Calm - N/A   Clear
6:58 AM 32.2 °F 26.7 °F 31.3 °F 96% 30.20 in 10.0 mi NW 5.8 mph - N/A   Clear
7:58 AM 32.4 °F - 32.0 °F 99% 30.22 in 10.0 mi Calm Calm - N/A   Clear
8:58 AM 42.1 °F 37.1 °F 31.6 °F 67% 30.22 in 10.0 mi NNW 8.1 mph - N/A   Clear
9:58 AM 46.2 °F 41.7 °F 28.2 °F 50% 30.22 in 10.0 mi North 9.2 mph - N/A   Clear
10:58 AM 49.6 °F - 25.9 °F 40% 30.20 in 10.0 mi NE 5.8 mph - N/A   Clear
11:32 AM 51.8 °F - 26.6 °F 38% 30.19 in 10.0 mi Variable 4.6 mph - N/A   Clear
11:56 AM 53.6 °F - 23.0 °F 30% 30.17 in 10.0 mi Variable 4.6 mph - N/A   Clear
12:56 PM 57.2 °F - 23.0 °F 27% 30.13 in 10.0 mi Variable 4.6 mph - N/A   Partly Cloudy
1:56 PM 59.0 °F - 21.2 °F 23% 30.13 in 10.0 mi WNW 3.5 mph - N/A   Clear
2:58 PM 59.9 °F - 24.6 °F 26% 30.12 in 10.0 mi WNW 5.8 mph - N/A   Clear
3:58 PM 59.5 °F - 22.1 °F 24% 30.12 in 10.0 mi NNW 6.9 mph - N/A   Partly Cloudy
4:58 PM 58.8 °F - 26.4 °F 29% 30.11 in 10.0 mi North 4.6 mph - N/A   Clear
5:58 PM 55.8 °F - 27.5 °F 34% 30.14 in 10.0 mi NNW 9.2 mph - N/A   Mostly Cloudy
6:58 PM 52.0 °F - 34.2 °F 51% 30.12 in 10.0 mi ENE 4.6 mph - N/A   Mostly Cloudy
7:58 PM 47.8 °F - 36.1 °F 64% 30.15 in 10.0 mi Calm Calm - N/A   Overcast
8:58 PM 48.2 °F - 37.2 °F 66% 30.14 in 10.0 mi Calm Calm - N/A   Overcast
9:58 PM 45.3 °F - 38.1 °F 76% 30.13 in 10.0 mi Calm Calm - N/A   Mostly Cloudy
10:58 PM 44.1 °F 42.5 °F 39.7 °F 85% 30.14 in 10.0 mi North 3.5 mph - N/A   Overcast
11:58 PM 43.7 °F - 38.8 °F 83% 30.12 in 10.0 mi Calm Calm - N/A   Scattered Clouds